Mexico City Airport, Mexico

2:01 AM CST on February 18, 2018 (GMT -0600)
Lic Benito Juarez International

Weather History for MMMX - December, 2011

Change the Weather History Date:

Friday, December 23, 2011

  Actual Average Record
Temperature  
Mean Temperature 58 °F -  
Max Temperature 75 °F 68 °F 75 °F (2011)
Min Temperature 42 °F 40 °F 32 °F (2003)
Degree Days  
Heating Degree Days 6    
Growing Degree Days 8 (Base 50)    
Moisture  
Dew Point 40 °F    
Average Humidity 63    
Maximum Humidity 100    
Minimum Humidity 13    
Precipitation  
Precipitation 0.00 in - - ()
Sea Level Pressure  
Sea Level Pressure 30.25 in    
Wind  
Wind Speed 4 mph ()    
Max Wind Speed 14 mph    
Max Gust Speed -    
Visibility 6.1 miles    
Events Fog    
Averages and records for this station are not official NWS values.
T = Trace of Precipitation, MM = Missing Value Source: Averaged Metar Reports

Daily Weather History Graph

Daily Weather History Graph

Search for Another Location

Airport or City:

Trip Planner

Search our weather history database for the weather conditions in past years. The results will help you decide how hot, cold, wet, or windy it might be!

Date:

Astronomy

Dec. 23, 2011 Rise Set
Actual Time 7:06 AM CST 6:04 PM CST
Civil Twilight 6:42 AM CST 6:28 PM CST
Nautical Twilight 6:15 AM CST 6:55 PM CST
Astronomical Twilight 5:48 AM CST 7:22 PM CST
Moon 5:56 AM CST (12/23) 5:15 PM CST (12/23)
Length of Visible Light 11h 45m
Length of Day
10h 57m
Waning Crescent, 1% of the Moon is Illuminated
Dec 23
Waning Crescent
Dec 24
New
Jan 1
First Quarter
Jan 9
Full
Jan 16
Last Quarter

Hourly Weather History & Observations

Time (CST) Temp. Windchill Dew Point Humidity Pressure Visibility Wind Dir Wind Speed Gust Speed Precip Events Conditions
12:53 AM 55.4 °F - 44.6 °F 67% 30.32 in 10.0 mi WNW 6.9 mph - N/A   Scattered Clouds
1:48 AM 53.6 °F - 42.8 °F 67% 30.33 in 7.0 mi East 5.8 mph - N/A   Clear
2:18 AM 50.0 °F - 44.6 °F 82% 30.32 in 7.0 mi East 4.6 mph - N/A   Clear
2:49 AM 48.2 °F - 44.6 °F 87% 29.87 in 6.0 mi Calm Calm - N/A   Clear
3:46 AM 48.2 °F - 44.6 °F 87% 30.32 in 6.0 mi Calm Calm - N/A   Clear
4:46 AM 46.4 °F 43.5 °F 42.8 °F 87% 30.33 in 5.0 mi ENE 5.8 mph - N/A   Clear
5:48 AM 46.4 °F 43.5 °F 42.8 °F 87% 29.93 in 5.0 mi ENE 5.8 mph - N/A   Clear
6:22 AM 44.6 °F 41.4 °F 41.0 °F 87% 30.34 in 5.0 mi East 5.8 mph - N/A   Clear
6:51 AM 42.8 °F 40.1 °F 41.0 °F 93% 30.35 in 0.2 mi East 4.6 mph - N/A Fog Fog
6:56 AM 42.8 °F 40.1 °F 41.0 °F 93% 30.35 in 0.2 mi East 4.6 mph - N/A Fog Fog
7:02 AM 42.8 °F 41.1 °F 42.8 °F 100% 30.36 in 0.0 mi East 3.5 mph - N/A Fog Fog
7:20 AM 44.6 °F 42.2 °F 44.6 °F 100% 30.36 in 0.0 mi East 4.6 mph - N/A Fog Fog
7:46 AM 44.6 °F 42.2 °F 44.6 °F 100% 30.38 in 0.0 mi NE 4.6 mph - N/A Fog Fog
8:19 AM 46.4 °F 44.3 °F 44.6 °F 93% 30.39 in 0.0 mi ENE 4.6 mph - N/A Fog Fog
8:47 AM 46.4 °F 43.5 °F 46.4 °F 100% 30.00 in 1.0 mi ENE 5.8 mph - N/A   Scattered Clouds
9:19 AM 48.2 °F - 48.2 °F 100% 30.41 in 3.0 mi NE 4.6 mph - N/A   Clear
9:42 AM 50.0 °F - 48.2 °F 94% 30.41 in 4.0 mi East 4.6 mph - N/A   Clear
10:14 AM 53.6 °F - 48.2 °F 82% 30.41 in 4.0 mi Calm Calm - N/A   Clear
10:21 AM 57.2 °F - 46.4 °F 67% 30.41 in 4.0 mi ENE 3.5 mph - N/A   Clear
10:41 AM 59.0 °F - 46.4 °F 63% 30.40 in 4.0 mi Calm Calm - N/A   Clear
11:42 AM 62.6 °F - 41.0 °F 45% 30.37 in 4.0 mi Calm Calm - N/A   Clear
12:04 PM 68.0 °F - 39.2 °F 35% 30.35 in 4.0 mi Calm Calm - N/A   Clear
12:44 PM 69.8 °F - 39.2 °F 33% 30.33 in 4.0 mi Calm Calm - N/A   Clear
1:42 PM 73.4 °F - 37.4 °F 27% 30.28 in 4.0 mi SW 3.5 mph - N/A   Clear
1:43 PM 73.4 °F - 37.4 °F 27% 30.28 in 4.0 mi SW 3.5 mph - N/A   Clear
2:45 PM 75.2 °F - 30.2 °F 19% 29.76 in 6.0 mi SSW 6.9 mph - N/A   Partly Cloudy
3:47 PM 75.2 °F - 21.2 °F 13% 30.23 in 10.0 mi North 4.6 mph - N/A   Clear
4:44 PM 73.4 °F - 21.2 °F 14% 30.23 in 12.0 mi South 10.4 mph - N/A   Clear
5:47 PM 71.6 °F - 46.4 °F 41% 29.82 in 12.0 mi South 13.8 mph - N/A   Clear
6:43 PM 68.0 °F - 35.6 °F 30% 30.27 in 12.0 mi SE 11.5 mph - N/A   Clear
6:45 PM 66.2 °F - 35.6 °F 32% 30.27 in 12.0 mi SE 11.5 mph - N/A   Clear
7:44 PM 64.4 °F - 35.6 °F 34% 30.30 in 12.0 mi SSE 9.2 mph - N/A   Clear
8:42 PM 62.6 °F - 37.4 °F 39% 29.94 in 12.0 mi South 8.1 mph - N/A   Clear
9:45 PM 60.8 °F - 37.4 °F 42% 30.33 in 12.0 mi SE 9.2 mph - N/A   Clear
10:45 PM 59.0 °F - 37.4 °F 45% 30.34 in 12.0 mi South 4.6 mph - N/A   Clear
11:46 PM 55.4 °F - 37.4 °F 51% 30.34 in 12.0 mi WSW 8.1 mph - N/A   Clear
11:50 PM 55.4 °F - 37.4 °F 51% 29.93 in 12.0 mi WSW 6.9 mph - N/A   Clear